Time,TemperatureF,DewpointF,PressureIn,WindDirection,WindDirectionDegrees,WindSpeedMPH,WindSpeedGustMPH,Humidity,HourlyPrecipIn,Conditions,Clouds,dailyrainin,SolarRadiationWatts/m^2,SoftwareType,DateUTC
2013-03-19 00:12:00,29.0,5.0,-100.00,West,265,11.0,21.0,36,0.00,,,0.00,0.000000,,2013-03-19 06:12:00,
2013-03-19 00:22:00,29.0,5.0,-100.00,West,265,11.0,21.0,36,0.00,,,0.00,0.000000,,2013-03-19 06:22:00,
2013-03-19 00:32:00,29.0,5.0,-100.00,West,265,11.0,21.0,36,0.00,,,0.00,0.000000,,2013-03-19 06:32:00,
2013-03-19 00:42:00,29.0,5.0,-100.00,West,265,11.0,21.0,36,0.00,,,0.00,0.000000,,2013-03-19 06:42:00,
2013-03-19 01:12:00,28.0,6.0,-100.00,WNW,290,6.0,22.0,38,0.00,,,0.00,0.000000,,2013-03-19 07:12:00,
2013-03-19 01:21:00,28.0,6.0,-100.00,WNW,290,6.0,22.0,38,0.00,,,0.00,0.000000,,2013-03-19 07:21:00,
2013-03-19 01:32:00,28.0,6.0,-100.00,WNW,290,6.0,22.0,38,0.00,,,0.00,0.000000,,2013-03-19 07:32:00,
2013-03-19 01:42:00,28.0,6.0,-100.00,WNW,290,6.0,22.0,38,0.00,,,0.00,0.000000,,2013-03-19 07:42:00,
2013-03-19 02:12:00,28.0,6.0,-100.00,WNW,283,8.0,17.0,38,0.00,,,0.00,0.000000,,2013-03-19 08:12:00,
2013-03-19 02:22:00,28.0,6.0,-100.00,WNW,283,8.0,17.0,38,0.00,,,0.00,0.000000,,2013-03-19 08:22:00,
2013-03-19 02:32:00,28.0,6.0,-100.00,WNW,283,8.0,17.0,38,0.00,,,0.00,0.000000,,2013-03-19 08:32:00,
2013-03-19 02:42:00,28.0,6.0,-100.00,WNW,283,8.0,17.0,38,0.00,,,0.00,0.000000,,2013-03-19 08:42:00,
2013-03-19 03:12:00,28.0,6.0,-100.00,West,276,10.0,15.0,39,0.00,,,0.00,0.000000,,2013-03-19 09:12:00,
2013-03-19 03:22:00,28.0,6.0,-100.00,West,276,10.0,15.0,39,0.00,,,0.00,0.000000,,2013-03-19 09:22:00,
2013-03-19 03:32:00,28.0,6.0,-100.00,West,276,10.0,15.0,39,0.00,,,0.00,0.000000,,2013-03-19 09:32:00,
2013-03-19 03:42:00,28.0,6.0,-100.00,West,276,10.0,15.0,39,0.00,,,0.00,0.000000,,2013-03-19 09:42:00,
2013-03-19 04:12:00,28.0,6.0,-100.00,West,279,10.0,17.0,39,0.00,,,0.00,0.000000,,2013-03-19 10:12:00,
2013-03-19 04:23:00,28.0,6.0,-100.00,West,279,10.0,17.0,39,0.00,,,0.00,0.000000,,2013-03-19 10:23:00,
2013-03-19 04:32:00,28.0,6.0,-100.00,West,279,10.0,17.0,39,0.00,,,0.00,0.000000,,2013-03-19 10:32:00,
2013-03-19 04:42:00,28.0,6.0,-100.00,West,279,10.0,17.0,39,0.00,,,0.00,0.000000,,2013-03-19 10:42:00,
2013-03-19 05:12:00,27.0,6.0,-100.00,WNW,292,6.0,17.0,41,0.00,,,0.00,0.000000,,2013-03-19 11:12:00,
2013-03-19 05:22:00,27.0,6.0,-100.00,WNW,292,6.0,17.0,41,0.00,,,0.00,0.000000,,2013-03-19 11:22:00,
2013-03-19 05:32:00,27.0,6.0,-100.00,WNW,292,6.0,17.0,41,0.00,,,0.00,0.000000,,2013-03-19 11:32:00,
2013-03-19 05:42:00,27.0,6.0,-100.00,WNW,292,6.0,17.0,41,0.00,,,0.00,0.000000,,2013-03-19 11:42:00,
2013-03-19 06:12:00,26.0,6.0,-100.00,WNW,301,7.0,15.0,42,0.00,,,0.00,0.000000,,2013-03-19 12:12:00,
2013-03-19 06:22:00,26.0,6.0,-100.00,WNW,301,7.0,15.0,42,0.00,,,0.00,0.000000,,2013-03-19 12:22:00,
2013-03-19 06:32:00,26.0,6.0,-100.00,WNW,301,7.0,15.0,42,0.00,,,0.00,0.000000,,2013-03-19 12:32:00,
2013-03-19 06:42:00,26.0,6.0,-100.00,WNW,301,7.0,15.0,42,0.00,,,0.00,0.000000,,2013-03-19 12:42:00,
2013-03-19 07:12:00,25.0,7.0,-100.00,NW,305,4.0,11.0,46,0.00,,,0.00,0.000000,,2013-03-19 13:12:00,
2013-03-19 07:22:00,25.0,7.0,-100.00,NW,305,4.0,11.0,46,0.00,,,0.00,0.000000,,2013-03-19 13:22:00,
2013-03-19 07:32:00,25.0,7.0,-100.00,NW,305,4.0,11.0,46,0.00,,,0.00,0.000000,,2013-03-19 13:32:00,
2013-03-19 07:42:00,25.0,7.0,-100.00,NW,305,4.0,11.0,46,0.00,,,0.00,0.000000,,2013-03-19 13:42:00,
2013-03-19 08:12:00,25.0,8.0,-100.00,West,278,5.0,8.0,47,0.00,,,0.00,15.000000,,2013-03-19 14:12:00,
2013-03-19 08:22:00,25.0,8.0,-100.00,West,278,5.0,8.0,47,0.00,,,0.00,15.000000,,2013-03-19 14:22:00,
2013-03-19 08:32:00,25.0,8.0,-100.00,West,278,5.0,8.0,47,0.00,,,0.00,15.000000,,2013-03-19 14:32:00,
2013-03-19 08:42:00,25.0,8.0,-100.00,West,278,5.0,8.0,47,0.00,,,0.00,15.000000,,2013-03-19 14:42:00,
2013-03-19 09:12:00,30.0,11.0,-100.00,West,279,5.0,9.0,45,0.00,,,0.00,171.000000,,2013-03-19 15:12:00,
2013-03-19 09:22:00,30.0,11.0,-100.00,West,279,5.0,9.0,45,0.00,,,0.00,171.000000,,2013-03-19 15:22:00,
2013-03-19 09:33:00,30.0,11.0,-100.00,West,279,5.0,9.0,45,0.00,,,0.00,171.000000,,2013-03-19 15:33:00,
2013-03-19 09:43:00,30.0,11.0,-100.00,West,279,5.0,9.0,45,0.00,,,0.00,171.000000,,2013-03-19 15:43:00,
2013-03-19 10:13:00,33.0,13.0,-100.00,West,272,6.0,10.0,44,0.00,,,0.00,327.000000,,2013-03-19 16:13:00,
2013-03-19 10:23:00,33.0,13.0,-100.00,West,272,6.0,10.0,44,0.00,,,0.00,327.000000,,2013-03-19 16:23:00,
2013-03-19 10:33:00,33.0,13.0,-100.00,West,272,6.0,10.0,44,0.00,,,0.00,327.000000,,2013-03-19 16:33:00,
2013-03-19 10:43:00,33.0,13.0,-100.00,West,272,6.0,10.0,44,0.00,,,0.00,327.000000,,2013-03-19 16:43:00,
2013-03-19 11:13:00,35.0,11.0,-100.00,WNW,293,8.0,14.0,36,0.00,,,0.00,460.000000,,2013-03-19 17:13:00,
2013-03-19 11:23:00,35.0,11.0,-100.00,WNW,293,8.0,14.0,36,0.00,,,0.00,460.000000,,2013-03-19 17:23:00,
2013-03-19 11:34:00,35.0,11.0,-100.00,WNW,293,8.0,14.0,36,0.00,,,0.00,460.000000,,2013-03-19 17:34:00,
2013-03-19 11:43:00,35.0,11.0,-100.00,WNW,293,8.0,14.0,36,0.00,,,0.00,460.000000,,2013-03-19 17:43:00,
2013-03-19 12:13:00,38.0,9.0,-100.00,NW,310,7.0,13.0,30,0.00,,,0.00,789.000000,,2013-03-19 18:13:00,
2013-03-19 12:23:00,38.0,9.0,-100.00,NW,310,7.0,13.0,30,0.00,,,0.00,789.000000,,2013-03-19 18:23:00,
2013-03-19 12:33:00,38.0,9.0,-100.00,NW,310,7.0,13.0,30,0.00,,,0.00,789.000000,,2013-03-19 18:33:00,
2013-03-19 12:42:00,38.0,9.0,-100.00,NW,310,7.0,13.0,30,0.00,,,0.00,789.000000,,2013-03-19 18:42:00,
2013-03-19 13:12:00,38.0,11.0,-100.00,WNW,297,9.0,19.0,33,0.00,,,0.00,960.000000,,2013-03-19 19:12:00,
2013-03-19 13:22:00,38.0,11.0,-100.00,WNW,297,9.0,19.0,33,0.00,,,0.00,960.000000,,2013-03-19 19:22:00,
2013-03-19 13:32:00,38.0,11.0,-100.00,WNW,297,9.0,19.0,33,0.00,,,0.00,960.000000,,2013-03-19 19:32:00,
2013-03-19 13:42:00,38.0,11.0,-100.00,WNW,297,9.0,19.0,33,0.00,,,0.00,960.000000,,2013-03-19 19:42:00,
2013-03-19 14:12:00,39.0,9.0,-100.00,WNW,297,9.0,22.0,29,0.00,,,0.00,1063.000000,,2013-03-19 20:12:00,
2013-03-19 14:22:00,39.0,9.0,-100.00,WNW,297,9.0,22.0,29,0.00,,,0.00,1063.000000,,2013-03-19 20:22:00,
2013-03-19 14:32:00,39.0,9.0,-100.00,WNW,297,9.0,22.0,29,0.00,,,0.00,1063.000000,,2013-03-19 20:32:00,
2013-03-19 14:42:00,39.0,9.0,-100.00,WNW,297,9.0,22.0,29,0.00,,,0.00,1063.000000,,2013-03-19 20:42:00,
2013-03-19 15:12:00,40.0,9.0,-100.00,West,281,10.0,18.0,27,0.00,,,0.00,1028.000000,,2013-03-19 21:12:00,
2013-03-19 15:22:00,40.0,9.0,-100.00,West,281,10.0,18.0,27,0.00,,,0.00,1028.000000,,2013-03-19 21:22:00,
2013-03-19 15:33:00,40.0,9.0,-100.00,West,281,10.0,18.0,27,0.00,,,0.00,1028.000000,,2013-03-19 21:33:00,
2013-03-19 15:42:00,40.0,9.0,-100.00,West,281,10.0,18.0,27,0.00,,,0.00,1028.000000,,2013-03-19 21:42:00,
2013-03-19 16:12:00,36.0,6.0,-100.00,West,273,11.0,21.0,28,0.00,,,0.00,851.000000,,2013-03-19 22:12:00,
2013-03-19 16:23:00,36.0,6.0,-100.00,West,273,11.0,21.0,28,0.00,,,0.00,851.000000,,2013-03-19 22:23:00,
2013-03-19 16:33:00,36.0,6.0,-100.00,West,273,11.0,21.0,28,0.00,,,0.00,851.000000,,2013-03-19 22:33:00,
2013-03-19 16:43:00,36.0,6.0,-100.00,West,273,11.0,21.0,28,0.00,,,0.00,851.000000,,2013-03-19 22:43:00,
2013-03-19 17:12:00,37.0,5.0,-100.00,WNW,300,8.0,21.0,26,0.00,,,0.00,664.000000,,2013-03-19 23:12:00,
2013-03-19 17:22:00,37.0,5.0,-100.00,WNW,300,8.0,21.0,26,0.00,,,0.00,664.000000,,2013-03-19 23:22:00,
2013-03-19 17:32:00,37.0,5.0,-100.00,WNW,300,8.0,21.0,26,0.00,,,0.00,664.000000,,2013-03-19 23:32:00,
2013-03-19 17:42:00,37.0,5.0,-100.00,WNW,300,8.0,21.0,26,0.00,,,0.00,664.000000,,2013-03-19 23:42:00,
2013-03-19 18:12:00,34.0,4.0,-100.00,WNW,295,9.0,17.0,27,0.00,,,0.00,309.000000,,2013-03-20 00:12:00,
2013-03-19 18:22:00,34.0,4.0,-100.00,WNW,295,9.0,17.0,27,0.00,,,0.00,309.000000,,2013-03-20 00:22:00,
2013-03-19 18:32:00,34.0,4.0,-100.00,WNW,295,9.0,17.0,27,0.00,,,0.00,309.000000,,2013-03-20 00:32:00,
2013-03-19 19:12:00,32.0,3.0,-100.00,WNW,301,6.0,17.0,28,0.00,,,0.00,159.000000,,2013-03-20 01:12:00,
2013-03-19 19:22:00,32.0,3.0,-100.00,WNW,301,6.0,17.0,28,0.00,,,0.00,159.000000,,2013-03-20 01:22:00,
2013-03-19 19:32:00,32.0,3.0,-100.00,WNW,301,6.0,17.0,28,0.00,,,0.00,159.000000,,2013-03-20 01:32:00,
2013-03-19 19:42:00,32.0,3.0,-100.00,WNW,301,6.0,17.0,28,0.00,,,0.00,159.000000,,2013-03-20 01:42:00,
2013-03-19 20:12:00,29.0,2.0,-100.00,WNW,287,7.0,12.0,31,0.00,,,0.00,13.000000,,2013-03-20 02:12:00,
2013-03-19 20:22:00,29.0,2.0,-100.00,WNW,287,7.0,12.0,31,0.00,,,0.00,13.000000,,2013-03-20 02:22:00,
2013-03-19 20:32:00,29.0,2.0,-100.00,WNW,287,7.0,12.0,31,0.00,,,0.00,13.000000,,2013-03-20 02:32:00,
2013-03-19 20:42:00,29.0,2.0,-100.00,WNW,287,7.0,12.0,31,0.00,,,0.00,13.000000,,2013-03-20 02:42:00,
2013-03-19 21:12:00,27.0,2.0,-100.00,WNW,284,6.0,10.0,34,0.00,,,0.00,0.000000,,2013-03-20 03:12:00,
2013-03-19 21:22:00,27.0,2.0,-100.00,WNW,284,6.0,10.0,34,0.00,,,0.00,0.000000,,2013-03-20 03:22:00,
2013-03-19 21:33:00,27.0,2.0,-100.00,WNW,284,6.0,10.0,34,0.00,,,0.00,0.000000,,2013-03-20 03:33:00,
2013-03-19 21:42:00,27.0,2.0,-100.00,WNW,284,6.0,10.0,34,0.00,,,0.00,0.000000,,2013-03-20 03:42:00,
2013-03-19 22:12:00,27.0,2.0,-100.00,SW,220,4.0,9.0,34,0.00,,,0.00,0.000000,,2013-03-20 04:12:00,
2013-03-19 22:22:00,27.0,2.0,-100.00,SW,220,4.0,9.0,34,0.00,,,0.00,0.000000,,2013-03-20 04:22:00,
2013-03-19 22:32:00,27.0,2.0,-100.00,SW,220,4.0,9.0,34,0.00,,,0.00,0.000000,,2013-03-20 04:32:00,
2013-03-19 22:43:00,27.0,2.0,-100.00,SW,220,4.0,9.0,34,0.00,,,0.00,0.000000,,2013-03-20 04:43:00,
2013-03-19 23:12:00,27.0,0.0,-100.00,SSW,208,0.0,7.0,30,0.00,,,0.00,0.000000,,2013-03-20 05:12:00,
2013-03-19 23:22:00,27.0,0.0,-100.00,SSW,208,0.0,7.0,30,0.00,,,0.00,0.000000,,2013-03-20 05:22:00,
2013-03-19 23:32:00,27.0,0.0,-100.00,SSW,208,0.0,7.0,30,0.00,,,0.00,0.000000,,2013-03-20 05:32:00,
2013-03-19 23:42:00,27.0,0.0,-100.00,SSW,208,0.0,7.0,30,0.00,,,0.00,0.000000,,2013-03-20 05:42:00,